Retour au catalogue

STARLINK-34837

ActifCommunicationsVLEO
NORAD 65423·PAYLOAD·🇺🇸 United States

Lancé Aug 31, 2025 depuis Cape Canaveral Space Force Station

Loading…

Prochains Passages (prochaines 24 heures)

TLE

FraisSource: CelesTrak SupGP

Époque: Sep 14, 2026, 14:36 UTC

1 65423C 25192V   26257.60881944 -.00024358  00000+0 -78319-3 0  2572
2 65423  53.1575  73.4660 0001129  94.3432  60.7526 15.31718716    19

Suivez STARLINK-34837 en temps réel avec AllMySat

Download on the App Store